Location: Bakov nad Jizerou
(50.4784°N, 14.9394°E)
Time: 21:21:49
(UTC+00:00)

Cosmos 1812 Rocket - Pass Details

Date: 16 June 2021
Orbit: 606 x 631 km, 82.5° (Epoch: 23 July)

Event Time Altitude Azimuth Distance (km) Brightness Sun altitude
Rises 23:19:32 0° 348° (NNW) 2,879 8.5 -16.0°
Reaches altitude 10° 23:21:45 10° 346° (NNW) 1,971 7.3 -16.0°
Maximum altitude 23:26:06 73° 263° (W) 642 3.5 -15.9°
Enters shadow 23:28:13 29° 184° (S) 1,116 4.3 -15.9°
